Galax, VA

7:06 PM EDT on March 27, 2017 (GMT -0400)
Twin County

Weather History for KHLX - January, 2013

Change the Weather History Date:

Sunday, January 13, 2013

  Actual Average (KBLF) Record (KBLF)
Temperature  
Mean Temperature 64 °F -  
Max Temperature 69 °F 39 °F 69 °F (2013)
Min Temperature 60 °F 22 °F 3 °F (1997)
Growing Degree Days 14 (Base 50)    
Moisture  
Dew Point 58 °F    
Average Humidity 83    
Maximum Humidity 94    
Minimum Humidity 60    
Precipitation  
Precipitation 0.00 in - - ()
Sea Level Pressure  
Sea Level Pressure 30.10 in    
Wind  
Wind Speed 10 mph (South)    
Max Wind Speed 18 mph    
Max Gust Speed 26 mph    
Visibility 10 miles    
Events      
Averages and records for this station are not official NWS values.
T = Trace of Precipitation, MM = Missing Value Source: NWS Daily Summary

Daily Weather History Graph

Daily Weather History Graph

Search for Another Location

Airport or City:

Trip Planner

Search our weather history database for the weather conditions in past years. The results will help you decide how hot, cold, wet, or windy it might be!

Date:

Astronomy

Jan. 13, 2013 Rise Set
Actual Time 7:35 AM EST 5:29 PM EST
Civil Twilight 7:07 AM EST 5:57 PM EST
Nautical Twilight 6:35 AM EST 6:29 PM EST
Astronomical Twilight 6:04 AM EST 7:00 PM EST
Moon 8:37 AM EST (1/13) 8:00 PM EST (1/13)
Length of Visible Light 10h 50m
Length of Day
9h 53m
Waxing Crescent, 5% of the Moon is Illuminated
Jan 13
Waxing Crescent
Jan 18
First Quarter
Jan 26
Full
Feb 3
Last Quarter
Feb 10
New

Hourly Weather History & Observations

Time (EST) Temp. Dew Point Humidity Pressure Visibility Wind Dir Wind Speed Gust Speed Precip Events Conditions
12:15 AM 60.8 °F 59.0 °F 94% 30.13 in 10.0 mi South 9.2 mph - N/A   Clear
12:35 AM 60.8 °F 57.2 °F 88% 30.13 in 10.0 mi South 8.1 mph - N/A   Clear
12:55 AM 60.8 °F 57.2 °F 88% 30.13 in 10.0 mi South 8.1 mph - N/A   Clear
1:15 AM 60.8 °F 57.2 °F 88% 30.12 in 10.0 mi South 6.9 mph - N/A   Clear
1:35 AM 60.8 °F 57.2 °F 88% 30.12 in 10.0 mi South 8.1 mph - N/A   Clear
1:55 AM 62.6 °F 57.2 °F 82% 30.12 in 10.0 mi South 11.5 mph 18.4 mph N/A   Clear
2:15 AM 62.6 °F 57.2 °F 82% 30.12 in 10.0 mi South 11.5 mph 18.4 mph N/A   Clear
2:35 AM 60.8 °F 57.2 °F 88% 30.12 in 10.0 mi South 15.0 mph 19.6 mph N/A   Scattered Clouds
2:55 AM 62.6 °F 59.0 °F 88% 30.12 in 10.0 mi South 12.7 mph 19.6 mph N/A   Scattered Clouds
3:15 AM 60.8 °F 57.2 °F 88% 30.11 in 10.0 mi South 10.4 mph - N/A   Scattered Clouds
3:35 AM 60.8 °F 57.2 °F 88% 30.11 in 10.0 mi South 8.1 mph 16.1 mph N/A   Clear
3:55 AM 60.8 °F 57.2 °F 88% 30.10 in 10.0 mi South 8.1 mph - N/A   Clear
4:15 AM 60.8 °F 57.2 °F 88% 30.10 in 10.0 mi South 8.1 mph - N/A   Scattered Clouds
4:35 AM 60.8 °F 57.2 °F 88% 30.09 in 10.0 mi South 9.2 mph - N/A   Scattered Clouds
4:55 AM 60.8 °F 57.2 °F 88% 30.08 in 10.0 mi South 9.2 mph - N/A   Scattered Clouds
5:15 AM 60.8 °F 57.2 °F 88% 30.08 in 10.0 mi South 9.2 mph - N/A   Scattered Clouds
5:35 AM 60.8 °F 57.2 °F 88% 30.08 in 10.0 mi South 13.8 mph 20.7 mph N/A   Clear
5:55 AM 60.8 °F 57.2 °F 88% 30.08 in 10.0 mi South 13.8 mph 21.9 mph N/A   Clear
6:15 AM 60.8 °F 57.2 °F 88% 30.08 in 10.0 mi South 18.4 mph 23.0 mph N/A   Clear
6:35 AM 60.8 °F 57.2 °F 88% 30.08 in 10.0 mi South 18.4 mph 25.3 mph N/A   Clear
6:55 AM 60.8 °F 57.2 °F 88% 30.09 in 10.0 mi South 18.4 mph 26.5 mph N/A   Clear
7:15 AM 60.8 °F 57.2 °F 88% 30.09 in 10.0 mi South 15.0 mph 24.2 mph N/A   Clear
7:35 AM 60.8 °F 57.2 °F 88% 30.09 in 10.0 mi South 12.7 mph 23.0 mph N/A   Clear
7:55 AM 60.8 °F 57.2 °F 88% 30.11 in 10.0 mi SSW 16.1 mph 23.0 mph N/A   Clear
8:15 AM 60.8 °F 57.2 °F 88% 30.12 in 10.0 mi SSW 15.0 mph 21.9 mph N/A   Clear
8:35 AM 62.6 °F 57.2 °F 82% 30.14 in 10.0 mi SSW 10.4 mph 18.4 mph N/A   Clear
8:55 AM 62.6 °F 57.2 °F 82% 30.15 in 10.0 mi SW 10.4 mph - N/A   Clear
9:15 AM 62.6 °F 57.2 °F 82% 30.14 in 10.0 mi SSW 9.2 mph - N/A   Clear
9:35 AM 62.6 °F 57.2 °F 82% 30.15 in 10.0 mi SSW 9.2 mph - N/A   Clear
10:15 AM 64.4 °F 57.2 °F 77% 30.15 in 10.0 mi SSW 6.9 mph - N/A   Clear
10:35 AM 64.4 °F 57.2 °F 77% 30.15 in 10.0 mi SSW 10.4 mph - N/A   Clear
10:55 AM 64.4 °F 57.2 °F 77% 30.15 in 10.0 mi SSW 5.8 mph - N/A   Clear
11:15 AM 66.2 °F 57.2 °F 73% 30.14 in 10.0 mi SSW 8.1 mph - N/A   Clear
11:35 AM 66.2 °F 57.2 °F 73% 30.12 in 10.0 mi South 4.6 mph - N/A   Clear
11:55 AM 68.0 °F 57.2 °F 68% 30.11 in 10.0 mi South 4.6 mph - N/A   Clear
12:15 PM 69.8 °F 55.4 °F 60% 30.10 in 10.0 mi SSW 5.8 mph - N/A   Clear
12:35 PM 69.8 °F 59.0 °F 68% 30.08 in 10.0 mi South 8.1 mph - N/A   Clear
12:55 PM 68.0 °F 57.2 °F 68% 30.07 in 10.0 mi South 6.9 mph - N/A   Clear
1:15 PM 69.8 °F 57.2 °F 64% 30.07 in 10.0 mi South 9.2 mph - N/A   Clear
1:35 PM 68.0 °F 59.0 °F 73% 30.07 in 10.0 mi South 11.5 mph - N/A   Clear
1:55 PM 66.2 °F 59.0 °F 78% 30.08 in 10.0 mi South 8.1 mph - N/A   Clear
2:15 PM 66.2 °F 59.0 °F 78% 30.08 in 10.0 mi SSE 8.1 mph - N/A   Scattered Clouds
2:35 PM 66.2 °F 60.8 °F 83% 30.07 in 10.0 mi SSE 8.1 mph - N/A   Scattered Clouds
2:55 PM 66.2 °F 59.0 °F 78% 30.07 in 10.0 mi South 11.5 mph 19.6 mph N/A   Scattered Clouds
3:15 PM 66.2 °F 59.0 °F 78% 30.08 in 10.0 mi South 11.5 mph 17.3 mph N/A   Clear
3:35 PM 66.2 °F 59.0 °F 78% 30.09 in 10.0 mi South 13.8 mph 18.4 mph N/A   Clear
3:55 PM 66.2 °F 59.0 °F 78% 30.09 in 10.0 mi South 10.4 mph 17.3 mph N/A   Clear
4:15 PM 66.2 °F 59.0 °F 78% 30.10 in 10.0 mi South 9.2 mph 16.1 mph N/A   Clear
4:35 PM 64.4 °F 60.8 °F 88% 30.10 in 10.0 mi South 8.1 mph - N/A   Clear
4:55 PM 64.4 °F 60.8 °F 88% 30.10 in 10.0 mi South 9.2 mph - N/A   Scattered Clouds
5:15 PM 64.4 °F 60.8 °F 88% 30.10 in 10.0 mi South 8.1 mph - N/A   Overcast
5:35 PM 64.4 °F 60.8 °F 88% 30.10 in 10.0 mi South 5.8 mph - N/A   Overcast
5:55 PM 64.4 °F 60.8 °F 88% 30.09 in 10.0 mi South 8.1 mph - N/A   Mostly Cloudy
6:15 PM 64.4 °F 59.0 °F 83% 30.10 in 10.0 mi South 6.9 mph - N/A   Scattered Clouds
6:35 PM 64.4 °F 59.0 °F 83% 30.09 in 10.0 mi South 9.2 mph 16.1 mph N/A   Scattered Clouds
7:15 PM 64.4 °F 59.0 °F 83% 30.10 in 10.0 mi South 8.1 mph - N/A   Scattered Clouds
7:35 PM 62.6 °F 59.0 °F 88% 30.10 in 10.0 mi South 9.2 mph - N/A   Mostly Cloudy
7:55 PM 62.6 °F 59.0 °F 88% 30.09 in 10.0 mi South 9.2 mph 17.3 mph N/A   Scattered Clouds
8:15 PM 62.6 °F 57.2 °F 82% 30.10 in 10.0 mi SSW 10.4 mph - N/A   Scattered Clouds
8:35 PM 62.6 °F 57.2 °F 82% 30.09 in 10.0 mi South 10.4 mph - N/A   Mostly Cloudy
8:55 PM 62.6 °F 57.2 °F 82% 30.09 in 10.0 mi South 10.4 mph 17.3 mph N/A   Scattered Clouds
9:15 PM 62.6 °F 57.2 °F 82% 30.09 in 10.0 mi South 12.7 mph 20.7 mph N/A   Clear
9:35 PM 62.6 °F 57.2 °F 82% 30.08 in 10.0 mi South 12.7 mph 19.6 mph N/A   Clear
9:55 PM 62.6 °F 57.2 °F 82% 30.08 in 10.0 mi South 15.0 mph 21.9 mph N/A   Mostly Cloudy
10:15 PM 62.6 °F 57.2 °F 82% 30.09 in 10.0 mi SSW 17.3 mph 23.0 mph N/A   Overcast
10:35 PM 62.6 °F 57.2 °F 82% 30.11 in 10.0 mi SSW 13.8 mph - N/A   Overcast
10:55 PM 62.6 °F 59.0 °F 88% 30.12 in 10.0 mi SSW 9.2 mph - N/A   Overcast
11:15 PM 62.6 °F 59.0 °F 88% 30.12 in 10.0 mi South 8.1 mph - N/A   Overcast
11:35 PM 62.6 °F 59.0 °F 88% 30.12 in 10.0 mi SSW 9.2 mph - N/A   Overcast
11:55 PM 64.4 °F 59.0 °F 83% 30.12 in 10.0 mi South 8.1 mph - N/A   Overcast